Simultaneous Nadir Overpasses (SNOs) Predictions

Prediction of SNOs between GOES-17 and TERRA Satellite Orbit:

Table of predicted SNOs for the next 14.0 days since TLE Epoch: 4/4/2025
Index Date Time (GOES-17) GOES-17 Lat,Lon TERRA Lat,Lon Distance(km) Time Diff (sec)
1 04/07/2025 04:24:33 -0.03,-104.38 -0.08,-104.63 28.27 80
2 04/09/2025 04:08:16 -0.02,-104.38 0.86,-100.06 490.64 80
3 04/09/2025 16:27:47 0.02,-104.42 0.11,-104.81 44.54 80
4 04/11/2025 16:06:10 0.02,-104.42 -0.88,-100.25 475.13 80
5 04/12/2025 04:25:49 -0.02,-104.39 -0.18,-105.02 72.65 80
6 04/14/2025 04:09:31 -0.02,-104.39 0.78,-100.45 447.32 80
7 04/14/2025 16:29:02 0.02,-104.43 0.16,-105.21 87.64 80
8 04/16/2025 16:07:23 0.02,-104.43 -0.79,-100.63 432.21 80
9 04/17/2025 04:29:41 -0.02,-104.40 -0.26,-105.41 115.71 80
